Time,TemperatureF,DewpointF,PressureIn,WindDirection,WindDirectionDegrees,WindSpeedMPH,WindSpeedGustMPH,Humidity,HourlyPrecipIn,Conditions,Clouds,dailyrainin,SoftwareType,DateUTC
2013-01-10 00:00:00,29.5,16.5,29.71,South,176,0.0,0.0,58,0.00,,,0.12,Weather View 32 v70,2013-01-10 05:00:00,
2013-01-10 00:20:00,28.6,16.8,29.74,South,176,0.0,0.0,61,0.00,,,0.00,Weather View 32 v70,2013-01-10 05:20:00,
2013-01-10 00:26:00,28.6,16.8,29.74,South,176,0.0,0.0,61,0.00,,,0.00,Weather View 32 v70,2013-01-10 05:26:00,
2013-01-10 00:40:00,27.3,16.7,29.74,South,176,0.0,0.0,64,0.00,,,0.00,Weather View 32 v70,2013-01-10 05:40:00,
2013-01-10 01:00:00,27.0,17.8,29.77,South,186,0.0,0.0,68,0.00,,,0.00,Weather View 32 v70,2013-01-10 06:00:00,
2013-01-10 01:20:00,26.8,18.6,29.80,South,191,0.0,4.0,71,0.00,,,0.00,Weather View 32 v70,2013-01-10 06:20:00,
2013-01-10 01:27:00,26.8,18.6,29.80,South,191,0.0,4.0,71,0.00,,,0.00,Weather View 32 v70,2013-01-10 06:27:00,
2013-01-10 01:40:00,28.2,20.0,29.80,South,191,4.0,4.0,71,0.00,,,0.00,Weather View 32 v70,2013-01-10 06:40:00,
2013-01-10 02:00:00,29.3,19.3,29.83,SSW,192,3.0,4.0,66,0.00,,,0.00,Weather View 32 v70,2013-01-10 07:00:00,
2013-01-10 02:20:00,29.3,19.0,29.83,SSW,197,4.0,5.0,65,0.00,,,0.00,Weather View 32 v70,2013-01-10 07:20:00,
2013-01-10 02:28:00,29.3,19.0,29.83,SSW,197,4.0,5.0,65,0.00,,,0.00,Weather View 32 v70,2013-01-10 07:28:00,
2013-01-10 02:40:00,29.7,19.3,29.85,SSW,199,3.0,5.0,65,0.00,,,0.00,Weather View 32 v70,2013-01-10 07:40:00,
2013-01-10 03:00:00,29.3,19.3,29.85,SSW,199,3.0,5.0,66,0.00,,,0.00,Weather View 32 v70,2013-01-10 08:00:00,
2013-01-10 03:20:00,28.6,19.0,29.85,SSW,202,2.0,5.0,67,0.00,,,0.00,Weather View 32 v70,2013-01-10 08:20:00,
2013-01-10 03:29:00,28.6,19.0,29.85,SSW,202,2.0,5.0,67,0.00,,,0.00,Weather View 32 v70,2013-01-10 08:29:00,
2013-01-10 03:40:00,27.5,18.0,29.85,SSW,212,2.0,4.0,67,0.00,,,0.00,Weather View 32 v70,2013-01-10 08:40:00,
2013-01-10 04:00:00,25.9,17.4,29.85,SSW,213,0.0,4.0,70,0.00,,,0.00,Weather View 32 v70,2013-01-10 09:00:00,
2013-01-10 04:20:00,25.0,17.5,29.83,SW,218,0.0,3.0,73,0.00,,,0.00,Weather View 32 v70,2013-01-10 09:20:00,
2013-01-10 04:29:00,25.0,17.5,29.83,SW,218,0.0,3.0,73,0.00,,,0.00,Weather View 32 v70,2013-01-10 09:29:00,
2013-01-10 04:40:00,24.4,17.3,29.83,SW,218,0.0,3.0,74,0.00,,,0.00,Weather View 32 v70,2013-01-10 09:40:00,
2013-01-10 05:00:00,24.1,17.3,29.83,SW,218,0.0,3.0,75,0.00,,,0.00,Weather View 32 v70,2013-01-10 10:00:00,
2013-01-10 05:20:00,23.5,16.8,29.83,SW,217,0.0,0.0,75,0.00,,,0.00,Weather View 32 v70,2013-01-10 10:20:00,
2013-01-10 05:40:00,23.9,17.7,29.83,SSW,202,0.0,0.0,77,0.00,,,0.00,Weather View 32 v70,2013-01-10 10:40:00,
2013-01-10 06:00:00,23.0,16.6,29.83,SSW,202,0.0,0.0,76,0.00,,,0.00,Weather View 32 v70,2013-01-10 11:00:00,
2013-01-10 06:20:00,22.3,15.9,29.83,SSW,202,0.0,0.0,76,0.00,,,0.00,Weather View 32 v70,2013-01-10 11:20:00,
2013-01-10 06:40:00,22.3,16.2,29.83,SSW,202,0.0,0.0,77,0.00,,,0.00,Weather View 32 v70,2013-01-10 11:40:00,
2013-01-10 07:00:00,22.3,16.2,29.83,SSW,202,0.0,0.0,77,0.00,,,0.00,Weather View 32 v70,2013-01-10 12:00:00,
2013-01-10 07:20:00,21.9,16.1,29.85,SSW,202,0.0,0.0,78,0.00,,,0.00,Weather View 32 v70,2013-01-10 12:20:00,
2013-01-10 07:40:00,22.3,16.5,29.83,SSW,202,0.0,0.0,78,0.00,,,0.00,Weather View 32 v70,2013-01-10 12:40:00,
2013-01-10 08:00:00,22.5,16.9,29.85,SSW,202,0.0,0.0,79,0.00,,,0.00,Weather View 32 v70,2013-01-10 13:00:00,
2013-01-10 08:20:00,22.5,16.9,29.85,SSW,202,0.0,0.0,79,0.00,,,0.00,Weather View 32 v70,2013-01-10 13:20:00,
2013-01-10 08:40:00,23.0,17.5,29.85,SSW,202,0.0,0.0,79,0.00,,,0.00,Weather View 32 v70,2013-01-10 13:40:00,
2013-01-10 09:00:00,23.4,17.8,29.85,SSW,202,0.0,0.0,79,0.00,,,0.00,Weather View 32 v70,2013-01-10 14:00:00,
2013-01-10 09:20:00,23.7,18.2,29.88,SSW,202,0.0,0.0,79,0.00,,,0.00,Weather View 32 v70,2013-01-10 14:20:00,
2013-01-10 09:40:00,25.9,21.1,29.88,SSW,202,0.0,0.0,82,0.00,,,0.00,Weather View 32 v70,2013-01-10 14:40:00,
2013-01-10 10:00:00,27.5,22.7,29.88,SSW,202,0.0,0.0,82,0.00,,,0.00,Weather View 32 v70,2013-01-10 15:00:00,
2013-01-10 10:20:00,28.9,23.5,29.88,SSW,202,0.0,0.0,80,0.00,,,0.00,Weather View 32 v70,2013-01-10 15:20:00,
2013-01-10 10:40:00,30.2,23.5,29.88,SSW,202,0.0,0.0,76,0.00,,,0.00,Weather View 32 v70,2013-01-10 15:40:00,
2013-01-10 11:00:00,31.3,23.6,29.85,SSW,202,0.0,0.0,73,0.00,,,0.00,Weather View 32 v70,2013-01-10 16:00:00,
2013-01-10 11:20:00,31.8,23.1,29.85,SE,124,0.0,4.0,70,0.00,,,0.00,Weather View 32 v70,2013-01-10 16:20:00,
2013-01-10 11:40:00,33.4,21.4,29.85,SE,129,4.0,4.0,61,0.00,,,0.00,Weather View 32 v70,2013-01-10 16:40:00,
2013-01-10 12:00:00,34.3,19.4,29.83,East,95,0.0,5.0,54,0.00,,,0.00,Weather View 32 v70,2013-01-10 17:00:00,
2013-01-10 12:20:00,36.5,19.1,29.80,East,91,3.0,5.0,49,0.00,,,0.00,Weather View 32 v70,2013-01-10 17:20:00,
2013-01-10 12:40:00,38.1,18.6,29.80,South,189,0.0,5.0,45,0.00,,,0.00,Weather View 32 v70,2013-01-10 17:40:00,
2013-01-10 13:00:00,38.5,17.4,29.80,SSW,197,2.0,5.0,42,0.00,,,0.00,Weather View 32 v70,2013-01-10 18:00:00,
2013-01-10 13:20:00,38.5,17.4,29.80,SE,139,3.0,5.0,42,0.00,,,0.00,Weather View 32 v70,2013-01-10 18:20:00,
2013-01-10 13:40:00,39.6,18.3,29.77,ESE,109,2.0,4.0,42,0.00,,,0.00,Weather View 32 v70,2013-01-10 18:40:00,
2013-01-10 14:00:00,42.8,19.5,29.77,East,88,3.0,5.0,39,0.00,,,0.00,Weather View 32 v70,2013-01-10 19:00:00,
2013-01-10 14:20:00,41.2,18.1,29.74,East,100,3.0,5.0,39,0.00,,,0.00,Weather View 32 v70,2013-01-10 19:20:00,
2013-01-10 14:40:00,40.6,17.6,29.74,ENE,75,3.0,5.0,39,0.00,,,0.00,Weather View 32 v70,2013-01-10 19:40:00,
2013-01-10 15:00:00,40.5,18.0,29.74,ENE,76,4.0,5.0,40,0.00,,,0.00,Weather View 32 v70,2013-01-10 20:00:00,
2013-01-10 15:20:00,40.3,18.4,29.74,ESE,104,3.0,5.0,41,0.00,,,0.00,Weather View 32 v70,2013-01-10 20:20:00,
2013-01-10 15:40:00,40.1,17.7,29.71,East,95,0.0,5.0,40,0.00,,,0.00,Weather View 32 v70,2013-01-10 20:40:00,
2013-01-10 16:00:00,39.2,17.4,29.74,NE,38,2.0,5.0,41,0.00,,,0.00,Weather View 32 v70,2013-01-10 21:00:00,
2013-01-10 16:20:00,38.5,17.4,29.71,ENE,73,3.0,5.0,42,0.00,,,0.00,Weather View 32 v70,2013-01-10 21:20:00,
2013-01-10 16:40:00,37.8,17.8,29.71,SSE,167,3.0,5.0,44,0.00,,,0.00,Weather View 32 v70,2013-01-10 21:40:00,
2013-01-10 17:00:00,37.0,18.2,29.71,SE,134,0.0,4.0,46,0.00,,,0.00,Weather View 32 v70,2013-01-10 22:00:00,
2013-01-10 17:20:00,36.5,18.2,29.71,SSW,207,0.0,4.0,47,0.00,,,0.00,Weather View 32 v70,2013-01-10 22:20:00,
2013-01-10 17:40:00,36.0,19.1,29.71,ESE,107,2.0,4.0,50,0.00,,,0.00,Weather View 32 v70,2013-01-10 22:40:00,
2013-01-10 18:00:00,35.8,18.9,29.68,ESE,103,3.0,5.0,50,0.00,,,0.00,Weather View 32 v70,2013-01-10 23:00:00,
2013-01-10 18:20:00,35.6,19.2,29.65,ESE,119,3.0,5.0,51,0.00,,,0.00,Weather View 32 v70,2013-01-10 23:20:00,
2013-01-10 18:41:00,35.6,19.2,29.65,ESE,113,3.0,6.0,51,0.00,,,0.00,Weather View 32 v70,2013-01-10 23:41:00,
2013-01-10 19:00:00,35.6,19.7,29.62,ESE,109,3.0,6.0,52,0.00,,,0.00,Weather View 32 v70,2013-01-11 00:00:00,
2013-01-10 19:20:00,35.4,20.0,29.62,East,94,3.0,6.0,53,0.00,,,0.00,Weather View 32 v70,2013-01-11 00:20:00,
2013-01-10 19:40:00,35.2,20.7,29.62,East,83,3.0,5.0,55,0.00,,,0.00,Weather View 32 v70,2013-01-11 00:40:00,
2013-01-10 20:00:00,35.2,20.7,29.62,ESE,119,0.0,5.0,55,0.00,,,0.00,Weather View 32 v70,2013-01-11 01:00:00,
2013-01-10 20:20:00,35.2,21.1,29.62,SSE,160,0.0,5.0,56,0.00,,,0.00,Weather View 32 v70,2013-01-11 01:20:00,
2013-01-10 20:40:00,35.2,21.5,29.62,ESE,104,3.0,5.0,57,0.00,,,0.00,Weather View 32 v70,2013-01-11 01:40:00,
2013-01-10 21:00:00,35.2,21.5,29.62,ESE,116,4.0,4.0,57,0.00,,,0.00,Weather View 32 v70,2013-01-11 02:00:00,
2013-01-10 21:20:00,35.4,21.7,29.59,ESE,122,0.0,4.0,57,0.00,,,0.00,Weather View 32 v70,2013-01-11 02:20:00,
2013-01-10 21:40:00,35.2,23.9,29.59,East,86,0.0,4.0,63,0.00,,,0.00,Weather View 32 v70,2013-01-11 02:40:00,
2013-01-10 22:00:00,34.9,25.7,29.56,South,183,0.0,4.0,69,0.00,,,0.00,Weather View 32 v70,2013-01-11 03:00:00,
2013-01-10 22:20:00,34.9,27.1,29.53,SE,132,4.0,5.0,73,0.04,,,0.04,Weather View 32 v70,2013-01-11 03:20:00,
2013-01-10 22:40:00,35.1,27.6,29.53,SSW,192,3.0,6.0,74,0.04,,,0.04,Weather View 32 v70,2013-01-11 03:40:00,
2013-01-10 23:00:00,34.9,28.1,29.50,ESE,103,3.0,6.0,76,0.04,,,0.04,Weather View 32 v70,2013-01-11 04:00:00,
2013-01-10 23:20:00,35.1,28.3,29.47,ESE,108,4.0,6.0,76,0.00,,,0.04,Weather View 32 v70,2013-01-11 04:20:00,
2013-01-10 23:40:00,35.1,28.3,29.47,ESE,108,3.0,6.0,76,0.00,,,0.04,Weather View 32 v70,2013-01-11 04:40:00,